User: anonymous   Login
Location: Mt. Cuba Astronomical Observatory
(39.8100°N, 75.6300°W)
Time: 20:44:15
(UTC-05:00)
Language:

Cosmos 2058 - Orbit

View from above orbital plane
View from above orbital plane
View from above satellite
View from above satellite

Ground track
Ground track

The orbit data is extracted from the following two-line orbital elements,

1 20465U 90010A   17326.84207139  .00000559  00000-0  45414-4 0  9991
2 20465  82.4893  95.3099 0016934 118.2763 242.0171 14.97626820509083
Epoch (UTC): 22 November 2017 20:12:34
Eccentricity: 0.0016934
inclination: 82.4893°
perigee height: 562 km
apogee height: 586 km
right ascension of ascending node: 95.3099°
argument of perigee: 118.2763°
revolutions per day: 14.97626820
mean anomaly at epoch: 242.0171°
orbit number at epoch: 50908

The dashed part of the orbit path shows where the satellite is in the earth's shadow,  

DLR